CW7443 Weather Reports


Display with metric or nautical units.
time (UTC)temp
F
wind
direction
speed
MPH
gust
MPH
rain 1hr
in
rain 24hr
in
rain mn
in
humidity
%
barometer
mb
20221128105018 39 16 0.0 0.0 0.00 0.51 0.01 94 1007.4
20221128103529 39 16 0.0 0.0 0.00 0.51 0.01 93 1006.9
20221128102044 39 16 0.0 1.0 0.00 0.51 0.01 93 1006.9
20221128100551 39 16 0.0 1.0 0.00 0.51 0.01 93 1006.6
20221128095037 39 16 0.0 6.0 0.00 0.56 0.01 93 1006.5
20221128093526 39 79 0.0 0.0 0.00 0.56 0.01 93 1006.5
20221128092020 39 79 0.0 0.0 0.00 0.56 0.01 93 1006.4
20221128090534 39 78 0.0 2.0 0.00 0.56 0.01 93 1006.2
20221128085038 39 102 0.0 2.0 0.00 0.57 0.01 93 1006.0
20221128083528 39 269 0.0 0.0 0.00 0.57 0.01 94 1005.8
20221128082015 40 269 0.0 1.0 0.00 0.57 0.01 94 1005.8
20221128080524 40 269 0.0 1.0 0.00 0.57 0.01 94 1005.5
20221128075018 40 269 0.0 2.0 0.00 0.62 0.01 94 1005.3
20221128073547 40 281 0.0 3.0 0.00 0.62 0.01 94 1005.1
20221128072031 40 309 0.0 7.0 0.00 0.62 0.01 94 1004.7
20221128070520 40 209 0.0 4.0 0.00 0.62 0.01 95 1004.4
20221128065029 40 105 0.0 0.0 0.00 0.65 0.01 95 1004.2
20221128063541 40 105 0.0 0.0 0.00 0.65 0.01 95 1004.2
20221128062030 40 105 0.0 2.0 0.00 0.65 0.01 95 1003.8
20221128060521 40 210 0.0 2.0 0.01 0.65 0.01 95 1003.6
20221128055055 41 158 0.0 6.0 0.01 0.65 0.01 95 1003.4
20221128053548 41 111 0.0 4.0 0.01 0.65 0.01 95 1003.1
20221128052030 41 263 0.0 3.0 0.01 0.65 0.01 95 1003.0
20221128050536 41 70 0.0 5.0 0.00 0.64 0.00 95 1002.7
20221128045027 41 22 0.0 2.0 0.00 0.64 0.64 95 1002.5
20221128043517 41 44 0.0 4.0 0.00 0.64 0.64 95 1002.4
20221128042023 41 229 1.0 4.0 0.00 0.64 0.64 95 1002.1
20221128040533 42 179 0.0 3.0 0.00 0.64 0.64 95 1001.6
20221128035018 42 252 0.0 4.0 0.00 0.64 0.64 94 1001.4
20221128033526 43 153 0.0 6.0 0.00 0.64 0.64 94 1001.0
20221128032049 43 192 0.0 7.0 0.00 0.64 0.64 94 1000.5
20221128030516 43 288 0.0 7.0 0.01 0.64 0.64 93 1000.3
20221128025023 44 202 1.0 4.0 0.02 0.64 0.64 93 999.9
20221128023529 45 68 0.0 6.0 0.02 0.64 0.64 93 999.4
20221128022039 46 186 1.0 8.0 0.03 0.63 0.63 93 998.9
20221128020526 47 189 1.0 8.0 0.04 0.63 0.63 93 998.8
20221128015016 48 185 1.0 8.0 0.03 0.62 0.62 93 998.1
20221128013522 49 317 3.0 8.0 0.03 0.62 0.62 93 997.8
20221128012031 49 171 2.0 9.0 0.01 0.60 0.60 93 997.5
20221128010516 49 157 3.0 10.0 0.01 0.59 0.59 92 997.3
20221128005023 49 128 2.0 13.0 0.01 0.59 0.59 92 997.1
20221128003530 49 238 2.0 13.0 0.01 0.59 0.59 92 997.0
20221128002016 49 190 1.0 13.0 0.01 0.59 0.59 92 996.9
20221128000552 49 104 2.0 10.0 0.00 0.58 0.58 91 996.7
20221127235016 49 158 3.0 11.0 0.00 0.58 0.58 89 996.7
20221127233543 50 209 1.0 13.0 0.00 0.58 0.58 87 996.6
20221127232033 50 221 1.0 10.0 0.01 0.58 0.58 86 996.2
20221127230516 50 196 2.0 13.0 0.01 0.58 0.58 84 995.9
20221127225022 50 71 2.0 9.0 0.01 0.58 0.58 84 995.9
20221127223540 51 166 2.0 11.0 0.01 0.58 0.58 80 995.6
20221127222026 51 205 3.0 10.0 0.00 0.57 0.57 78 995.2
20221127220529 51 169 3.0 13.0 0.00 0.57 0.57 77 995.1
20221127215019 51 161 3.0 10.0 0.00 0.57 0.57 80 995.0
20221127213524 51 123 1.0 7.0 0.00 0.57 0.57 80 994.8
20221127212034 52 176 0.0 14.0 0.00 0.57 0.57 79 994.4
20221127210540 52 206 4.0 14.0 0.00 0.57 0.57 74 994.0